Date String (YYYY-MM-DD hh:mm:ss) UTC,Instrument flags,absolute air pressure of the measurement (hPa),sample flow rate (lpm),inlet stack bypass flow (lpm),air temperature of the measurement (°C),ambient temperature measured by the external sensor (°C),aerosol sample conditioner tube jacket temperature (°C),OPC LED temperature (°C),internal box temperature (°C),relative humidity of the measurement (%),span deviation,mass concentration of particles derived from Lorenz-Mie calculation of OPC scattering (μg/m³),mass concentration of particles derived from Lorenz-Mie calculation of OPC scattering (μg/m³),mass concentration of particles derived from Lorenz-Mie calculation of OPC scattering (μg/m³)
DateTimeUTC,F1_M11,P_M11,Q1_M11,Q2_M11,T1_M11,T2_M11,T3_M11,T4_M11,T5_M11,U1_M11,ZSPAN_M11,X0_M11,X2_M11,X1_M11
2023-06-09 15:00:00,SystemResetWarning,0831.0,5.00,000.00,030.0,028.2,000.0,038.6,031.4,27.2,0000.0,0009.91,0004.17,0003.55
2023-06-09 15:01:00,SystemResetWarning,0831.1,5.00,000.00,030.0,028.3,000.0,038.6,031.4,28.0,0000.0,0010.18,0004.16,0003.53
2023-06-09 15:02:00,SystemResetWarning,0831.1,5.01,000.00,030.0,028.3,000.0,038.6,031.4,27.2,0000.0,0010.10,0004.17,0003.52
2023-06-09 15:03:00,SystemResetWarning,0831.0,5.00,000.00,030.0,028.4,000.0,038.6,031.5,26.8,0000.0,0010.10,0004.22,0003.51
2023-06-09 15:04:00,SystemResetWarning,0831.0,4.99,000.00,030.0,028.4,000.0,038.6,031.5,26.6,0000.0,0009.90,0004.23,0003.49
2023-06-09 15:05:00,SystemResetWarning,0831.0,4.99,000.00,030.1,027.3,000.0,038.6,031.6,26.5,0000.0,0009.73,0004.24,0003.48
2023-06-09 15:06:00,SystemResetWarning,0830.9,5.01,000.00,030.0,025.9,000.0,038.5,031.5,26.6,0000.0,0009.39,0004.27,0003.47
2023-06-09 15:07:00,SystemResetWarning,0830.9,5.01,000.00,030.0,025.8,000.0,038.5,031.4,26.4,0000.0,0008.66,0004.27,0003.47
2023-06-09 15:08:00,SystemResetWarning,0830.9,5.01,000.00,029.9,026.0,000.0,038.5,031.1,26.5,0000.0,0008.56,0004.25,0003.48
2023-06-09 15:09:00,SystemResetWarning,0830.9,4.98,000.00,029.8,026.3,000.0,038.5,031.0,27.2,0000.0,0008.52,0004.25,0003.47
2023-06-09 15:10:00,SystemResetWarning,0830.9,4.99,000.00,029.8,026.7,000.0,038.4,031.0,27.4,0000.0,0008.66,0004.28,0003.47
2023-06-09 15:11:00,SystemResetWarning,0830.9,5.00,000.00,029.8,027.0,000.0,038.4,031.1,27.0,0000.0,0008.58,0004.27,0003.46
2023-06-09 15:12:00,SystemResetWarning,0830.9,5.00,000.00,029.8,027.3,000.0,038.4,031.1,27.3,0000.0,0008.21,0004.29,0003.47
2023-06-09 15:13:00,SystemResetWarning,0830.9,5.00,000.00,029.8,027.5,000.0,038.4,031.1,28.1,0000.0,0008.17,0004.29,0003.47
2023-06-09 15:14:00,SystemResetWarning,0830.9,5.00,000.00,029.8,027.7,000.0,038.4,031.2,28.6,0000.0,0007.94,0004.21,0003.46
2023-06-09 15:15:00,SystemResetWarning,0830.9,4.99,000.00,029.8,027.8,000.0,038.4,031.2,29.2,0000.0,0007.81,0004.18,0003.47
2023-06-09 15:16:00,SystemResetWarning,0830.9,4.99,000.00,029.8,027.9,000.0,038.4,031.2,28.4,0000.0,0007.73,0004.15,0003.48
2023-06-09 15:17:00,SystemResetWarning,0830.9,5.00,000.00,029.8,028.0,000.0,038.4,031.2,28.2,0000.0,0008.12,0004.13,0003.47
2023-06-09 15:18:00,SystemResetWarning,0830.8,4.99,000.00,029.8,028.1,000.0,038.4,031.3,28.8,0000.0,0009.13,0004.10,0003.46
2023-06-09 15:19:00,SystemResetWarning,0830.8,5.00,000.00,029.8,028.2,000.0,038.4,031.3,28.5,0000.0,0009.10,0004.08,0003.46
2023-06-09 15:20:00,SystemResetWarning,0830.8,5.00,000.00,029.8,028.2,000.0,038.4,031.3,28.3,0000.0,0009.05,0004.05,0003.47
2023-06-09 15:21:00,SystemResetWarning,0830.9,5.00,000.00,029.9,028.3,000.0,038.4,031.3,28.3,0000.0,0008.93,0004.04,0003.47
2023-06-09 15:22:00,SystemResetWarning,0830.8,5.00,000.00,029.9,028.4,000.0,038.4,031.4,27.6,0000.0,0008.95,0004.05,0003.47
2023-06-09 15:23:00,SystemResetWarning,0830.8,4.99,000.00,029.9,027.5,000.0,038.4,031.5,27.6,0000.0,0008.79,0004.00,0003.45
2023-06-09 15:24:00,SystemResetWarning,0830.8,5.01,000.00,029.9,025.9,000.0,038.3,031.4,27.1,0000.0,0008.85,0003.98,0003.45
2023-06-09 15:25:00,SystemResetWarning,0830.8,5.01,000.00,029.9,025.8,000.0,038.3,031.4,27.0,0000.0,0008.89,0004.00,0003.45
2023-06-09 15:26:00,SystemResetWarning,0830.8,5.00,000.00,029.8,026.1,000.0,038.3,031.0,26.8,0000.0,0008.89,0004.02,0003.45
2023-06-09 15:27:00,SystemResetWarning,0830.8,4.99,000.00,029.7,026.4,000.0,038.3,030.9,26.6,0000.0,0009.29,0004.02,0003.45
2023-06-09 15:28:00,SystemResetWarning,0830.8,5.00,000.00,029.7,026.7,000.0,038.3,030.9,24.6,0000.0,0009.29,0003.99,0003.44
2023-06-09 15:29:00,SystemResetWarning,0830.8,5.01,000.00,029.7,027.0,000.0,038.3,031.0,24.7,0000.0,0009.05,0003.98,0003.43
2023-06-09 15:30:00,SystemResetWarning,0830.8,4.99,000.00,029.7,027.2,000.0,038.3,031.0,25.9,0000.0,0009.91,0003.99,0003.42
2023-06-09 15:31:00,SystemResetWarning,0830.7,4.99,000.00,029.7,027.5,000.0,038.3,031.0,26.3,0000.0,0010.04,0004.02,0003.41
2023-06-09 15:32:00,SystemResetWarning,0830.7,5.00,000.00,029.7,027.6,000.0,038.3,031.1,27.4,0000.0,0010.09,0004.02,0003.40
2023-06-09 15:33:00,SystemResetWarning,0830.7,5.01,000.00,029.7,027.8,000.0,038.3,031.1,25.3,0000.0,0010.47,0004.02,0003.40
2023-06-09 15:34:00,SystemResetWarning,0830.7,5.00,000.00,029.7,027.9,000.0,038.3,031.2,23.9,0000.0,0010.49,0004.02,0003.39
2023-06-09 15:35:00,SystemResetWarning,0830.7,5.01,000.00,029.7,028.0,000.0,038.3,031.2,22.1,0000.0,0010.33,0003.99,0003.37
2023-06-09 15:36:00,SystemResetWarning,0830.7,5.00,000.00,029.7,028.1,000.0,038.3,031.2,22.9,0000.0,0010.22,0003.95,0003.35
2023-06-09 15:37:00,SystemResetWarning,0830.6,5.00,000.00,029.7,028.2,000.0,038.3,031.2,24.4,0000.0,0010.25,0003.96,0003.34
2023-06-09 15:38:00,SystemResetWarning,0830.6,5.00,000.00,029.8,028.2,000.0,038.3,031.2,25.7,0000.0,0009.98,0003.95,0003.32
2023-06-09 15:39:00,SystemResetWarning,0830.6,4.99,000.00,029.8,028.3,000.0,038.3,031.2,24.6,0000.0,0009.76,0003.97,0003.32
2023-06-09 15:40:00,SystemResetWarning,0830.6,5.00,000.00,029.8,027.6,000.0,038.3,031.4,25.2,0000.0,0009.28,0003.99,0003.32
2023-06-09 15:41:00,SystemResetWarning,0830.6,5.01,000.00,029.8,025.7,000.0,038.2,031.2,24.9,0000.0,0008.43,0004.01,0003.32
2023-06-09 15:42:00,SystemResetWarning,0830.5,5.01,000.00,029.8,024.8,000.0,038.2,031.2,24.6,0000.0,0008.36,0003.99,0003.30
2023-06-09 15:43:00,SystemResetWarning,0830.5,5.01,000.00,029.7,025.1,000.0,038.2,031.1,21.7,0000.0,0008.37,0003.97,0003.29
2023-06-09 15:44:00,SystemResetWarning,0830.6,4.99,000.00,029.6,025.4,000.0,038.2,030.8,20.8,0000.0,0008.09,0003.99,0003.28
2023-06-09 15:45:00,SystemResetWarning,0830.5,5.00,000.00,029.5,025.8,000.0,038.1,030.6,23.5,0000.0,0008.08,0004.00,0003.28
2023-06-09 15:46:00,SystemResetWarning,0830.7,5.00,000.00,029.5,026.2,000.0,038.1,030.7,23.5,0000.0,0008.20,0004.04,0003.29
2023-06-09 15:47:00,SystemResetWarning,0830.5,5.01,000.00,029.5,026.6,000.0,038.1,030.7,24.1,0000.0,0008.25,0004.03,0003.29
2023-06-09 15:48:00,SystemResetWarning,0830.5,5.01,000.00,029.5,026.9,000.0,038.1,030.8,23.5,0000.0,0008.33,0004.04,0003.29
2023-06-09 15:49:00,SystemResetWarning,0830.7,5.00,000.00,029.4,027.1,000.0,038.1,030.8,22.2,0000.0,0008.35,0004.07,0003.28
2023-06-09 15:50:00,SystemResetWarning,0830.8,5.00,000.00,029.4,027.4,000.0,038.1,030.8,21.4,0000.0,0008.29,0004.06,0003.27
2023-06-09 15:51:00,SystemResetWarning,0830.5,5.01,000.00,029.5,027.5,000.0,038.1,030.9,20.4,0000.0,0008.07,0004.07,0003.26
2023-06-09 15:52:00,SystemResetWarning,0830.5,5.00,000.00,029.5,027.7,000.0,038.1,031.0,21.7,0000.0,0008.17,0004.08,0003.24
2023-06-09 15:53:00,SystemResetWarning,0830.6,5.00,000.00,029.5,027.8,000.0,038.1,031.0,21.9,0000.0,0008.38,0004.05,0003.23
2023-06-09 15:54:00,SystemResetWarning,0830.6,5.01,000.00,029.5,027.9,000.0,038.1,031.0,21.1,0000.0,0008.76,0004.03,0003.22
2023-06-09 15:55:00,SystemResetWarning,0830.6,5.00,000.00,029.5,028.0,000.0,038.1,031.0,20.4,0000.0,0009.27,0004.01,0003.22
2023-06-09 15:56:00,SystemResetWarning,0830.6,5.00,000.00,029.6,028.1,000.0,038.1,031.1,20.5,0000.0,0009.42,0003.99,0003.21
2023-06-09 15:57:00,SystemResetWarning,0830.6,4.99,000.00,029.6,028.1,000.0,038.1,031.1,20.5,0000.0,0009.38,0003.96,0003.19
2023-06-09 15:58:00,SystemResetWarning,0830.6,5.00,000.00,029.6,028.2,000.0,038.1,031.2,20.4,0000.0,0009.45,0003.98,0003.19
2023-06-09 15:59:00,SystemResetWarning,0830.6,5.00,000.00,029.6,028.3,000.0,038.1,031.2,20.7,0000.0,0009.40,0003.96,0003.18
